Flag for Netherlands Weather past 2 weeks in Rotterdam, Netherlands

Now
59 °F

Passing clouds.


Feels Like: 59 °F
Forecast: 57 / 75 °F
Wind: 2 mph from Northeast

Location: Rotterdam Zestienhoven Airport

Current Time: Sep 18, 2014 at 12:24:43 AM

Latest Report: Sep 17, 2014 at 11:55 PM


Visibility: 4 mi

Pressure: 29.86 "Hg

Humidity: 94%

Dew point: 57 °F

Location of RotterdamLocation

Historic Weather in Rotterdam — Graph

°F

Rotterdam temperature yesterday

Maximum temperature yesterday: 77 °F (at 2:25 PM)
Minimum temperature yesterday: 54 °F (at 2:55 AM)
Average temperature yesterday: 65 °F

Past Weeks' High & Low Weather Summary

 TemperatureHumidityPressure
High77 °F (Sep 17, 2:25 PM)100% (Sep 2, 11:25 PM)30.30 "Hg (Sep 2, 11:25 PM)
Low46 °F (Sep 11, 3:25 AM)51% (Sep 17, 2:55 PM)29.83 "Hg (Sep 17, 4:55 PM)
Average62 °F83%30.07 "Hg
* Reported Sep 2 11:25 PM — Sep 17 11:25 PM, Rotterdam, Weather by CustomWeather, © 2014

Note: Actual official high and low records may vary slightly from our data, if they occured in-between our weather recording intervals... More about our weather records

Advertising

Rotterdam weather history for previous 24 hours

 ConditionsComfort  
Time TempWeatherWind HumidityBarometerVisibility
11:25 PM
Sep 17
63 °FPassing clouds.2 mph88%29.86 "Hg4 mi
10:55 PM61 °FPassing clouds.2 mph94%29.86 "Hg4 mi
10:25 PM64 °FPassing clouds.5 mph83%29.86 "Hg6 mi
9:55 PM63 °FPassing clouds.5 mph88%29.86 "HgN/A
9:25 PM64 °FPassing clouds.5 mph88%29.86 "HgN/A
8:55 PM66 °FMild.5 mph83%29.86 "HgN/A
8:25 PM66 °FClear.5 mph78%29.86 "HgN/A
7:55 PM68 °FClear.6 mph73%29.86 "HgN/A
7:25 PM70 °FMild.7 mph73%29.86 "HgN/A
6:55 PM72 °FClear.8 mph69%29.83 "HgN/A
6:25 PM75 °FMild.8 mph61%29.83 "HgN/A
5:55 PM75 °FMild.8 mph57%29.83 "HgN/A
5:25 PM77 °FClear.9 mph54%29.83 "HgN/A
4:55 PM77 °FWarm.9 mph51%29.83 "HgN/A
4:25 PM77 °FWarm.7 mph51%29.86 "HgN/A
3:55 PM77 °FClear.7 mph51%29.86 "HgN/A
3:25 PM75 °FClear.6 mph57%29.86 "HgN/A
2:55 PM77 °FWarm.9 mph51%29.86 "HgN/A
2:25 PM77 °FClear.9 mph54%29.86 "HgN/A
1:55 PM75 °FClear.8 mph61%29.89 "HgN/A
1:25 PM73 °FClear.9 mph65%29.89 "HgN/A
12:55 PM73 °FClear.8 mph65%29.89 "HgN/A
12:25 PM73 °FMild.9 mph65%29.89 "HgN/A
11:55 AM72 °FMild.8 mph65%29.89 "HgN/A
11:25 AM70 °FMild.6 mph69%29.89 "HgN/A
10:55 AM68 °FClear.6 mph73%29.89 "Hg6 mi
10:25 AM64 °FClear.6 mph83%29.89 "Hg4 mi
9:55 AM63 °FFog.6 mph88%29.89 "Hg3 mi
9:25 AM61 °FFog.6 mph94%29.89 "Hg3 mi
8:55 AM61 °FFog.5 mph94%29.89 "Hg2 mi
8:25 AM57 °FFog.3 mph100%29.89 "Hg1 mi
7:55 AM55 °FFog.3 mph100%29.89 "Hg1 mi
7:25 AM55 °FFog.3 mph100%29.89 "Hg1 mi
6:55 AM55 °FFog.2 mph100%29.89 "Hg1 mi
6:25 AM57 °FFog.3 mph100%29.89 "Hg1 mi
5:55 AM57 °FFog.2 mph100%29.89 "Hg0 mi
5:25 AM55 °FFog.2 mph100%29.92 "Hg1 mi
4:55 AM55 °FFog.2 mph100%29.92 "Hg0 mi
4:25 AM54 °FFog.No wind100%29.92 "Hg0 mi
3:55 AM55 °FFog.2 mph100%29.92 "Hg0 mi
3:25 AM54 °FFog.2 mph100%29.92 "Hg0 mi
2:55 AM54 °FFog.1 mph100%29.92 "Hg1 mi
2:25 AM55 °FFog.No wind94%29.92 "Hg1 mi
1:55 AM57 °FFog.1 mph100%29.92 "Hg1 mi
1:25 AM57 °FFog.No wind100%29.92 "Hg0 mi
12:55 AM57 °FFog.1 mph100%29.92 "Hg0 mi
12:25 AM59 °FFog.1 mph100%29.92 "Hg0 mi
Weather by CustomWeather, © 2014

See weather overviewHow to use our weather pages